This is the latest recevied weather packets stored in our database for station/object KB1WCR. If no packets are shown the sender has not sent any weather packets the latest 10 day(s).
| Time | Temp. | Humidity | Pressure | Rain* | Wind** | Luminosity | Snow |
|---|---|---|---|---|---|---|---|
| 1787666643 | 22.78° C | 71% | 1013.3 hPa | 0 mm | - | 551 W/m² | - |
| 1787666341 | 22.78° C | 73% | 1013.2 hPa | 0 mm | - | 538 W/m² | - |
| 1787666037 | 22.78° C | 74% | 1013.4 hPa | 0 mm | - | 526 W/m² | - |
| 1787665732 | 22.22° C | 77% | 1013.5 hPa | 0 mm | - | 516 W/m² | - |
| 1787665428 | 21.67° C | 78% | 1013.6 hPa | 0 mm | - | 502 W/m² | - |
| 1787665127 | 21.11° C | 79% | 1013.2 hPa | 0 mm | - | 491 W/m² | - |
| 1787664825 | 21.11° C | 78% | 1013.3 hPa | 0 mm | - | 479 W/m² | - |
| 1787664524 | 21.67° C | 80% | 1013.2 hPa | 0 mm | - | 464 W/m² | - |
| 1787664220 | 21.67° C | 78% | 1013.2 hPa | 0 mm | - | 451 W/m² | - |
| 1787663918 | 21.11° C | 81% | 1013.2 hPa | 0 mm | - | 437 W/m² | - |
| 1787663614 | 20.56° C | 81% | 1013.2 hPa | 0 mm | - | 425 W/m² | - |
| 1787663310 | 20.56° C | 85% | 1013.2 hPa | 0 mm | - | 409 W/m² | - |
| 1787663006 | 20.56° C | 84% | 1013.1 hPa | 0 mm | - | 394 W/m² | - |
| 1787662701 | 20.56° C | 89% | 1013.1 hPa | 0 mm | - | 395 W/m² | - |
| 1787662400 | 20.56° C | 91% | 1013.2 hPa | 0 mm | - | 354 W/m² | - |
| 1787662096 | 20.56° C | 91% | 1013.2 hPa | 0 mm | - | 320 W/m² | - |
| 1787661792 | 20° C | 92% | 1013 hPa | 0 mm | - | 281 W/m² | - |
| 1787661491 | 20° C | 92% | 1013.1 hPa | 0 mm | - | 263 W/m² | - |
| 1787661190 | 20° C | 93% | 1013.2 hPa | 0 mm | - | 234 W/m² | - |
| 1787660889 | 19.44° C | 95% | 1013.1 hPa | 0 mm | - | 209 W/m² | - |
| 1787660584 | 18.33° C | 96% | 1013.2 hPa | 0 mm | - | 194 W/m² | - |
| 1787660279 | 17.78° C | 98% | 1013.2 hPa | 0 mm | - | 168 W/m² | - |
| 1787659975 | 17.78° C | 99% | 1013.2 hPa | 0 mm | - | 151 W/m² | - |
| 1787659672 | 17.78° C | 99% | 1013.3 hPa | 0 mm | - | 135 W/m² | - |
| 1787659367 | 18.33° C | 99% | 1013.2 hPa | 0 mm | - | 123 W/m² | - |
* Rain latest hour (hover to see other rain measurements)
** Current wind speed in m/s (hover to see current wind gust speed)